Location: Street
(51.1247°N, 2.7429°W)
Time: 14:18:14
(UTC+00:00)

ITUPSAT 1 - Visible Passes

Search period start: 25 March 2023 00:00
Search period end: 04 April 2023 01:00
Orbit: 699 x 709 km, 98.5° (Epoch: 24 March)

Date Brightness Start Highest point End Pass type
(mag) Time Alt. Az. Time Alt. Az. Time Alt. Az.
25 Mar ? 21:20:22 10° NNE 21:24:09 52° NE 21:24:09 52° NE visible
25 Mar ? 22:58:57 10° N 23:02:29 21° WNW 23:03:06 20° WNW visible
26 Mar ? 21:26:35 10° NE 21:29:16 22° ENE 21:29:16 22° ENE visible
26 Mar ? 23:03:50 10° N 23:08:12 52° NW 23:08:12 52° NW visible
27 Mar ? 00:44:27 10° NW 00:45:14 10° NW 00:46:01 10° WNW visible
27 Mar ? 22:09:23 10° NNE 22:13:18 48° ENE 22:13:18 48° ENE visible
27 Mar ? 23:47:41 10° N 23:51:34 25° WNW 23:52:14 24° WNW visible
28 Mar ? 21:15:50 10° NE 21:18:24 18° ENE 21:18:24 18° ENE visible
28 Mar ? 22:52:43 10° N 22:57:20 65° WNW 22:57:20 65° WNW visible
29 Mar ? 00:32:22 10° NNW 00:34:22 13° NW 00:36:16 10° WNW visible
29 Mar ? 21:58:25 10° NNE 22:02:26 42° ENE 22:02:26 42° ENE visible
29 Mar ? 23:36:28 10° N 23:40:37 30° WNW 23:41:22 28° W visible
30 Mar ? 21:05:14 10° NE 21:07:31 15° E 21:07:31 15° E visible
30 Mar ? 22:41:38 10° NNE 22:46:27 81° WNW 22:46:27 81° WNW visible
31 Mar ? 00:20:47 10° NNW 00:23:29 15° NW 00:25:23 12° W visible
31 Mar ? 21:47:28 10° NNE 21:51:31 34° E 21:51:31 34° E visible
31 Mar ? 23:25:15 10° N 23:29:38 36° WNW 23:30:28 34° W visible
01 Apr ? 20:54:53 10° ENE 20:56:37 12° E 20:56:37 12° E visible
01 Apr ? 22:30:33 10° NNE 22:35:23 82° ESE 22:35:32 80° SE visible
02 Apr ? 00:09:21 10° NNW 00:12:34 18° NW 00:14:28 15° W visible
02 Apr ? 21:36:34 10° NE 21:40:37 28° E 21:40:37 28° E visible
02 Apr ? 23:14:03 10° N 23:18:37 44° WNW 23:19:33 39° W visible
03 Apr ? 22:19:28 10° NNE 22:24:17 66° ESE 22:24:37 63° SE visible
03 Apr ? 23:58:00 10° N 00:01:36 22° WNW 00:03:32 17° W visible
